Regional Weather Roundup
Issued by NWS

Home | Current Version | Previous Version | Text Only | Print | Product List | Glossary Off
Versions: 1 2 3 4 5 6 7 8 9 10 11 12 13 14 15 16 17 18 19 20 21 22 23 24 25 26 27 28 29 30 31 32 33 34 35 36 37 38 39 40 41 42 43 44 45 46 47 48 49 50

000
ASUS43 KLSX 050757
RWRMO

WEATHER SUMMARY FOR MISSOURI
NATIONAL WEATHER SERVICE SPRINGFIELD MO
300 AM CDT SAT SEP 05 2015

NOTE: "FAIR" INDICATES FEW OR NO CLOUDS BELOW 12,000 FEET WITH NO
       SIGNIFICANT WEATHER AND/OR OBSTRUCTIONS TO VISIBILITY.
       CURRENT SKY AND/OR WEATHER CONDITIONS ARE NOT AVAILABLE FOR
       CHILLICOTHE AND FARMINGTON.

MOZ001>031-035>038-043-044-053-054-050900-
...NORTHERN AND WESTERN MISSOURI...

CITY           SKY/WX    TMP DP  RH WIND       PRES   REMARKS
KANSAS CTY INT CLEAR     74  69  85 S8        29.99S
LEE`S SUMMIT   CLEAR     76  68  76 S8        30.01S
ST JOSEPH      CLEAR     72  68  87 S5        29.98R
CHILLICOTHE      N/A     72  69  90 CALM      30.01S

$$
MOZ066>068-077>081-088>096-101>105-050900-
...SOUTHWEST MISSOURI...

CITY           SKY/WX    TMP DP  RH WIND       PRES   REMARKS
SPRINGFIELD    CLEAR     75  66  73 S9        30.03F
JOPLIN         CLEAR     77  68  73 SE8       30.00F

$$
MOZ032>034-039>042-045>050-055>058-069>072-050900-
...CENTRAL MISSOURI...

CITY           SKY/WX    TMP DP  RH WIND       PRES   REMARKS
COLUMBIA       NOT AVBL
JEFFERSON CITY CLEAR     72  69  90 CALM      30.02F
SEDALIA        CLEAR     73  68  84 S7        30.03S

$$
MOZ051-052-059>065-050900-
...EAST CENTRAL MISSOURI...

CITY           SKY/WX    TMP DP  RH WIND       PRES   REMARKS
ST LOUIS INTL  CLEAR     80  67  64 VRB3      30.04

$$
MOZ072>076-082>087-097>100-106>115-050900-
...SOUTH CENTRAL AND SOUTHEAST MISSOURI...

CITY           SKY/WX    TMP DP  RH WIND       PRES   REMARKS
CAPE GIRARDEAU CLEAR     69  69 100 CALM      30.03S FOG
POPLAR BLUFF   CLEAR     69  68  96 CALM      30.02S
WEST PLAINS    CLEAR     69  66  90 CALM      30.08S

$$


USA.gov is the U.S. government's official web portal to all federal, state and local government web resources and services.